sat.trackr.live / text

‹ back to catalog

STARLINK-4142

NORAD 53255 · 2022-086P

PAYLOAD ACTIVE UNKNOWN

§ Identity

Operator
Country
US
Launch date
2022-07-24
Launch site
AFETR
Launch vehicle
Mass (kg)
RCS (m²)

Purposes: comms

External: N2YO · Heavens-Above · Gunter

§ Orbital elements

Epoch: 2026-09-19T23:46:56.421120Z

Period
94.33 min
Inclination
53.1605°
Eccentricity
0.0001115
Mean motion
15.26518695 rev/d
Perigee alt
485.5 km
Apogee alt
487.0 km
Semi-major
6,864.4 km
B*
3.9758e-5
RAAN
37.2059°
Arg perigee
81.8110°
Mean anomaly
278.3015°
Rev number
23,045

§ Raw data

STARLINK-41421 53255U 22086P   26262.99093080  .00000707  00000+0  39758-4 0  99932 53255  53.1605  37.2059 0001115  81.8110 278.3015 15.26518695230453

JSON: /api/v1/satellites/53255 · /tle

For live sub-satellite position, see the globe view (requires WebGL).

§ Visibility from observer

Set your observer location to see the next 7 days of passes ≥ 10°. The values pass through the URL so the page stays shareable.

No JS? Fill the form by hand. The geolocation button needs JavaScript.